| time (UTC) | temp F | wind direction | speed MPH | gust MPH | rain 1hr in | rain 24hr in | rain mn in | humidity % | barometer mb |
| 20260506143051 | 77 | 214 | 5.0 | 9.0 | 0.00 | 0.00 | 0.00 | 46 | 1014.8 |
| 20260506143000 | 77 | 174 | 5.0 | 10.0 | 0.00 | 0.00 | 0.00 | 46 | 1015.0 |
| 20260506142451 | 77 | 135 | 5.0 | 10.0 | 0.00 | 0.00 | 0.00 | 45 | 1015.1 |
| 20260506141952 | 77 | 190 | 6.0 | 9.0 | 0.00 | 0.00 | 0.00 | 45 | 1015.1 |
| 20260506141551 | 78 | 138 | 4.0 | 9.0 | 0.00 | 0.00 | 0.00 | 44 | 1014.9 |
| 20260506141513 | 78 | 229 | 4.0 | 9.0 | 0.00 | 0.00 | 0.00 | 44 | 1015.2 |
| 20260506140951 | 78 | 173 | 4.0 | 12.0 | 0.00 | 0.00 | 0.00 | 44 | 1015.2 |
| 20260506140502 | 78 | 208 | 6.0 | 12.0 | 0.00 | 0.00 | 0.00 | 43 | 1015.2 |
| 20260506140051 | 78 | 128 | 5.0 | 9.0 | 0.00 | 0.00 | 0.00 | 43 | 1015.0 |
| 20260506140000 | 78 | 175 | 5.0 | 9.0 | 0.00 | 0.00 | 0.00 | 43 | 1015.2 |
| 20260506135452 | 78 | 235 | 4.0 | 11.0 | 0.00 | 0.00 | 0.00 | 43 | 1015.2 |
| 20260506134951 | 78 | 152 | 5.0 | 11.0 | 0.00 | 0.00 | 0.00 | 42 | 1015.3 |
| 20260506134551 | 78 | 176 | 4.0 | 9.0 | 0.00 | 0.00 | 0.00 | 42 | 1015.0 |
| 20260506134500 | 78 | 212 | 4.0 | 9.0 | 0.00 | 0.00 | 0.00 | 42 | 1015.3 |
| 20260506133951 | 78 | 193 | 4.0 | 13.0 | 0.00 | 0.00 | 0.00 | 42 | 1015.3 |
| 20260506133503 | 78 | 207 | 4.0 | 13.0 | 0.00 | 0.00 | 0.00 | 41 | 1015.3 |
| 20260506133052 | 78 | 127 | 5.0 | 12.0 | 0.00 | 0.00 | 0.00 | 41 | 1015.2 |
| 20260506133000 | 78 | 148 | 5.0 | 12.0 | 0.00 | 0.00 | 0.00 | 41 | 1015.5 |
| 20260506132451 | 78 | 274 | 4.0 | 10.0 | 0.00 | 0.00 | 0.00 | 41 | 1015.4 |
| 20260506131951 | 78 | 151 | 5.0 | 10.0 | 0.00 | 0.00 | 0.00 | 40 | 1015.5 |
| 20260506131556 | 78 | 223 | 4.0 | 10.0 | 0.00 | 0.00 | 0.00 | 40 | 1015.3 |
| 20260506131512 | 78 | 207 | 5.0 | 10.0 | 0.00 | 0.00 | 0.00 | 40 | 1015.5 |
| 20260506131003 | 78 | 261 | 6.0 | 11.0 | 0.00 | 0.00 | 0.00 | 42 | 1015.6 |
| 20260506130452 | 78 | 148 | 6.0 | 11.0 | 0.00 | 0.00 | 0.00 | 42 | 1015.6 |
| 20260506130053 | 78 | 221 | 4.0 | 9.0 | 0.00 | 0.00 | 0.00 | 42 | 1015.3 |
| 20260506130001 | 78 | 226 | 5.0 | 9.0 | 0.00 | 0.00 | 0.00 | 42 | 1015.7 |
| 20260506125451 | 78 | 149 | 4.0 | 10.0 | 0.00 | 0.00 | 0.00 | 42 | 1015.6 |
| 20260506124952 | 78 | 225 | 6.0 | 11.0 | 0.00 | 0.00 | 0.00 | 41 | 1015.7 |
| 20260506124553 | 79 | 159 | 4.0 | 11.0 | 0.00 | 0.00 | 0.00 | 42 | 1015.5 |
| 20260506124501 | 78 | 209 | 5.0 | 11.0 | 0.00 | 0.00 | 0.00 | 41 | 1015.7 |
| 20260506124003 | 79 | 217 | 4.0 | 9.0 | 0.00 | 0.00 | 0.00 | 41 | 1015.8 |
| 20260506123452 | 79 | 205 | 4.0 | 11.0 | 0.00 | 0.00 | 0.00 | 40 | 1015.8 |
| 20260506123102 | 79 | 183 | 4.0 | 11.0 | 0.00 | 0.00 | 0.00 | 41 | 1015.5 |
| 20260506123001 | 79 | 153 | 5.0 | 11.0 | 0.00 | 0.00 | 0.00 | 40 | 1015.8 |
| 20260506122452 | 79 | 140 | 5.0 | 9.0 | 0.00 | 0.00 | 0.00 | 41 | 1015.9 |
| 20260506121952 | 79 | 155 | 5.0 | 9.0 | 0.00 | 0.00 | 0.00 | 41 | 1016.0 |
| 20260506121605 | 79 | 221 | 3.0 | 9.0 | 0.00 | 0.00 | 0.00 | 41 | 1015.8 |
| 20260506121512 | 79 | 105 | 4.0 | 9.0 | 0.00 | 0.00 | 0.00 | 41 | 1015.9 |
| 20260506120952 | 79 | 212 | 4.0 | 10.0 | 0.00 | 0.00 | 0.00 | 41 | 1015.9 |
| 20260506120452 | 79 | 205 | 4.0 | 11.0 | 0.00 | 0.00 | 0.00 | 42 | 1015.9 |
| 20260506120052 | 79 | 179 | 5.0 | 11.0 | 0.00 | 0.00 | 0.00 | 39 | 1015.7 |
| 20260506120001 | 79 | 137 | 5.0 | 11.0 | 0.00 | 0.00 | 0.00 | 40 | 1015.9 |
| 20260506115452 | 79 | 141 | 5.0 | 10.0 | 0.00 | 0.00 | 0.00 | 41 | 1016.0 |
| 20260506114952 | 78 | 210 | 4.0 | 10.0 | 0.00 | 0.00 | 0.00 | 42 | 1016.0 |
| 20260506114553 | 78 | 192 | 2.0 | 9.0 | 0.00 | 0.00 | 0.00 | 42 | 1016.0 |
| 20260506114523 | 78 | 153 | 3.0 | 9.0 | 0.00 | 0.00 | 0.00 | 42 | 1016.2 |
| 20260506114003 | 78 | 111 | 4.0 | 10.0 | 0.00 | 0.00 | 0.00 | 43 | 1016.3 |
| 20260506113452 | 78 | 147 | 5.0 | 10.0 | 0.00 | 0.00 | 0.00 | 45 | 1016.4 |
| 20260506113052 | 78 | 200 | 3.0 | 9.0 | 0.00 | 0.00 | 0.00 | 45 | 1016.2 |
| 20260506113002 | 78 | 162 | 4.0 | 9.0 | 0.00 | 0.00 | 0.00 | 45 | 1016.4 |
| 20260506112452 | 78 | 147 | 3.0 | 10.0 | 0.00 | 0.00 | 0.00 | 45 | 1016.4 |
| 20260506111952 | 78 | 153 | 5.0 | 10.0 | 0.00 | 0.00 | 0.00 | 47 | 1016.4 |
| 20260506111553 | 78 | 154 | 5.0 | 10.0 | 0.00 | 0.00 | 0.00 | 48 | 1016.1 |
| 20260506111501 | 78 | 169 | 5.0 | 10.0 | 0.00 | 0.00 | 0.00 | 47 | 1016.3 |
| 20260506110952 | 78 | 256 | 3.0 | 8.0 | 0.00 | 0.00 | 0.00 | 48 | 1016.3 |
| 20260506110503 | 78 | 153 | 4.0 | 8.0 | 0.00 | 0.00 | 0.00 | 49 | 1016.4 |
| 20260506110101 | 78 | 139 | 3.0 | 7.0 | 0.00 | 0.00 | 0.00 | 48 | 1016.1 |
| 20260506110001 | 78 | 229 | 3.0 | 7.0 | 0.00 | 0.00 | 0.00 | 48 | 1016.3 |
| 20260506105453 | 78 | 112 | 4.0 | 11.0 | 0.00 | 0.00 | 0.00 | 48 | 1016.3 |
| 20260506104953 | 78 | 153 | 5.0 | 11.0 | 0.00 | 0.00 | 0.00 | 48 | 1016.3 |
| 20260506104557 | 79 | 224 | 3.0 | 7.0 | 0.00 | 0.00 | 0.00 | 47 | 1016.1 |
| 20260506104501 | 79 | 213 | 3.0 | 7.0 | 0.00 | 0.00 | 0.00 | 47 | 1016.3 |
| 20260506103953 | 79 | 184 | 3.0 | 6.0 | 0.00 | 0.00 | 0.00 | 47 | 1016.4 |
| 20260506103503 | 79 | 186 | 1.0 | 4.0 | 0.00 | 0.00 | 0.00 | 46 | 1016.6 |
| 20260506103056 | 78 | 223 | 1.0 | 5.0 | 0.00 | 0.00 | 0.00 | 46 | 1016.4 |
| 20260506103002 | 78 | 57 | 1.0 | 5.0 | 0.00 | 0.00 | 0.00 | 46 | 1016.6 |
| 20260506102452 | 78 | 271 | 2.0 | 4.0 | 0.00 | 0.00 | 0.00 | 46 | 1016.5 |
| 20260506102005 | 77 | 110 | 1.0 | 3.0 | 0.00 | 0.00 | 0.00 | 46 | 1016.6 |
| 20260506101609 | 76 | 180 | 1.0 | 6.0 | 0.00 | 0.00 | 0.00 | 46 | 1016.4 |
| 20260506101502 | 76 | 226 | 1.0 | 6.0 | 0.00 | 0.00 | 0.00 | 47 | 1016.7 |
| 20260506100953 | 76 | 289 | 3.0 | 6.0 | 0.00 | 0.00 | 0.00 | 45 | 1016.8 |
| 20260506100452 | 76 | 185 | 3.0 | 5.0 | 0.00 | 0.00 | 0.00 | 46 | 1016.9 |
| 20260506100053 | 75 | 282 | 2.0 | 8.0 | 0.00 | 0.00 | 0.00 | 47 | 1016.6 |
| 20260506100001 | 75 | 292 | 2.0 | 8.0 | 0.00 | 0.00 | 0.00 | 48 | 1016.8 |
| 20260506095452 | 74 | 292 | 4.0 | 8.0 | 0.00 | 0.00 | 0.00 | 47 | 1016.9 |
| 20260506094953 | 74 | 288 | 4.0 | 9.0 | 0.00 | 0.00 | 0.00 | 49 | 1016.8 |
| 20260506094557 | 74 | 321 | 5.0 | 9.0 | 0.00 | 0.00 | 0.00 | 49 | 1016.8 |
| 20260506094501 | 74 | 296 | 5.0 | 9.0 | 0.00 | 0.00 | 0.00 | 49 | 1016.8 |
| 20260506093952 | 74 | 314 | 4.0 | 6.0 | 0.00 | 0.00 | 0.00 | 48 | 1016.9 |
| 20260506093453 | 74 | 290 | 3.0 | 8.0 | 0.00 | 0.00 | 0.00 | 47 | 1016.9 |
| 20260506093058 | 74 | 84 | 2.0 | 8.0 | 0.00 | 0.00 | 0.00 | 47 | 1016.7 |
| 20260506093013 | 74 | 41 | 2.0 | 8.0 | 0.00 | 0.00 | 0.00 | 47 | 1016.9 |
| 20260506092453 | 74 | 333 | 3.0 | 6.0 | 0.00 | 0.00 | 0.00 | 45 | 1016.9 |
| 20260506091953 | 75 | 323 | 2.0 | 5.0 | 0.00 | 0.00 | 0.00 | 48 | 1016.9 |
| 20260506091553 | 74 | 80 | 2.0 | 5.0 | 0.00 | 0.00 | 0.00 | 47 | 1016.7 |
| 20260506091502 | 74 | 289 | 3.0 | 5.0 | 0.00 | 0.00 | 0.00 | 46 | 1016.9 |
| 20260506090953 | 75 | 310 | 2.0 | 5.0 | 0.00 | 0.00 | 0.00 | 47 | 1016.9 |
| 20260506090504 | 74 | 222 | 2.0 | 6.0 | 0.00 | 0.00 | 0.00 | 49 | 1016.9 |
| 20260506090105 | 74 | 303 | 3.0 | 6.0 | 0.00 | 0.00 | 0.00 | 46 | 1016.7 |
| 20260506090002 | 75 | 328 | 3.0 | 6.0 | 0.00 | 0.00 | 0.00 | 47 | 1016.9 |
| 20260506085453 | 73 | 237 | 0.0 | 6.0 | 0.00 | 0.00 | 0.00 | 51 | 1016.7 |
| 20260506084953 | 73 | 342 | 3.0 | 8.0 | 0.00 | 0.00 | 0.00 | 51 | 1016.8 |
| 20260506084613 | 72 | 333 | 2.0 | 8.0 | 0.00 | 0.00 | 0.00 | 52 | 1016.7 |
| 20260506084502 | 72 | 288 | 3.0 | 8.0 | 0.00 | 0.00 | 0.00 | 52 | 1016.8 |
| 20260506083953 | 72 | 338 | 3.0 | 6.0 | 0.00 | 0.00 | 0.00 | 52 | 1016.9 |
| 20260506083453 | 73 | 239 | 3.0 | 6.0 | 0.00 | 0.00 | 0.00 | 50 | 1016.8 |
| 20260506083054 | 73 | 292 | 2.0 | 6.0 | 0.00 | 0.00 | 0.00 | 51 | 1016.6 |
| 20260506083002 | 73 | 296 | 3.0 | 6.0 | 0.00 | 0.00 | 0.00 | 50 | 1016.8 |
| 20260506082453 | 73 | 319 | 2.0 | 6.0 | 0.00 | 0.00 | 0.00 | 51 | 1016.7 |
| 20260506081953 | 73 | 345 | 1.0 | 5.0 | 0.00 | 0.00 | 0.00 | 51 | 1016.6 |
| 20260506081607 | 73 | 297 | 2.0 | 5.0 | 0.00 | 0.00 | 0.00 | 49 | 1016.5 |
| 20260506081502 | 73 | 288 | 3.0 | 5.0 | 0.00 | 0.00 | 0.00 | 49 | 1016.6 |
| 20260506080953 | 73 | 291 | 1.0 | 5.0 | 0.00 | 0.00 | 0.00 | 50 | 1016.6 |
| 20260506080453 | 72 | 242 | 2.0 | 5.0 | 0.00 | 0.00 | 0.00 | 50 | 1016.6 |
| 20260506073453 | 70 | 46 | 1.0 | 4.0 | 0.00 | 0.00 | 0.00 | 51 | 1016.6 |
| 20260506073054 | 70 | 347 | 1.0 | 4.0 | 0.00 | 0.00 | 0.00 | 52 | 1016.5 |
| 20260506073003 | 70 | 318 | 1.0 | 4.0 | 0.00 | 0.00 | 0.00 | 53 | 1016.6 |
| 20260506072453 | 69 | 46 | 2.0 | 3.0 | 0.00 | 0.00 | 0.00 | 53 | 1016.5 |
| 20260506071953 | 69 | 62 | 1.0 | 2.0 | 0.00 | 0.00 | 0.00 | 51 | 1016.5 |
| 20260506071554 | 69 | 339 | 1.0 | 4.0 | 0.00 | 0.00 | 0.00 | 52 | 1016.4 |
| 20260506071503 | 69 | 32 | 1.0 | 4.0 | 0.00 | 0.00 | 0.00 | 52 | 1016.6 |
| 20260506070953 | 68 | 353 | 2.0 | 4.0 | 0.00 | 0.00 | 0.00 | 55 | 1016.6 |
| 20260506070453 | 68 | 324 | 1.0 | 3.0 | 0.00 | 0.00 | 0.00 | 54 | 1016.7 |
| 20260506062453 | 67 | 250 | 1.0 | 3.0 | 0.00 | 0.00 | 0.00 | 60 | 1017.0 |
| 20260506061953 | 67 | 50 | 1.0 | 2.0 | 0.00 | 0.00 | 0.00 | 58 | 1017.0 |
| 20260506061554 | 67 | 59 | 1.0 | 2.0 | 0.00 | 0.00 | 0.00 | 58 | 1016.8 |
| 20260506061514 | 67 | 60 | 1.0 | 2.0 | 0.00 | 0.00 | 0.00 | 58 | 1016.9 |
| 20260506060953 | 67 | 77 | 0.0 | 1.0 | 0.00 | 0.00 | 0.00 | 59 | 1017.0 |
| 20260506060454 | 66 | 112 | 0.0 | 0.0 | 0.00 | 0.00 | 0.00 | 61 | 1017.0 |
| 20260506050954 | 62 | 129 | 0.0 | 0.0 | 0.00 | 0.00 | 0.00 | 71 | 1016.9 |
| 20260506050505 | 62 | 129 | 0.0 | 0.0 | 0.00 | 0.00 | 0.00 | 70 | 1016.9 |
| 20260506050113 | 62 | 152 | 0.0 | 0.0 | 0.00 | 0.00 | 0.00 | 70 | 1016.7 |
| 20260506045005 | 60 | 152 | 0.0 | 0.0 | 0.00 | 0.00 | 0.00 | 76 | 1016.8 |
| 20260506044554 | 58 | 153 | 0.0 | 1.0 | 0.00 | 0.00 | 0.00 | 77 | 1016.6 |
| 20260506044505 | 58 | 153 | 0.0 | 2.0 | 0.00 | 0.00 | 0.00 | 77 | 1016.8 |
| 20260506044005 | 57 | 144 | 0.0 | 2.0 | 0.00 | 0.00 | 0.00 | 79 | 1016.6 |
| 20260506043505 | 56 | 168 | 1.0 | 2.0 | 0.00 | 0.00 | 0.00 | 81 | 1016.5 |
| 20260506043057 | 55 | 153 | 0.0 | 1.0 | 0.00 | 0.00 | 0.00 | 83 | 1016.3 |
| 20260506043005 | 55 | 153 | 0.0 | 1.0 | 0.00 | 0.00 | 0.00 | 83 | 1016.6 |
| 20260506042455 | 54 | 151 | 0.0 | 2.0 | 0.00 | 0.00 | 0.00 | 84 | 1016.4 |
| 20260506041955 | 53 | 153 | 1.0 | 2.0 | 0.00 | 0.00 | 0.00 | 85 | 1016.4 |
| 20260506041602 | 52 | 175 | 0.0 | 1.0 | 0.00 | 0.00 | 0.00 | 86 | 1016.2 |
| 20260506041516 | 52 | 149 | 0.0 | 0.0 | 0.00 | 0.00 | 0.00 | 86 | 1016.4 |
| 20260506040954 | 52 | 157 | 0.0 | 0.0 | 0.00 | 0.00 | 0.00 | 88 | 1016.3 |
| 20260506040456 | 51 | 207 | 0.0 | 0.0 | 0.00 | 0.00 | 0.00 | 88 | 1016.3 |
| 20260506040054 | 51 | 185 | 0.0 | 0.0 | 0.00 | 0.00 | 0.00 | 88 | 1016.2 |
| 20260506040007 | 51 | 192 | 0.0 | 0.0 | 0.00 | 0.00 | 0.00 | 88 | 1016.3 |
| 20260506035455 | 50 | 124 | 0.0 | 0.0 | 0.00 | 0.00 | 0.00 | 88 | 1016.3 |
| 20260506034955 | 50 | 229 | 0.0 | 0.0 | 0.00 | 0.00 | 0.00 | 88 | 1016.2 |
| 20260506034558 | 50 | 179 | 0.0 | 0.0 | 0.00 | 0.00 | 0.00 | 88 | 1016.1 |
| 20260506034504 | 50 | 144 | 0.0 | 0.0 | 0.00 | 0.00 | 0.00 | 88 | 1016.3 |
| 20260506033955 | 50 | 214 | 0.0 | 0.0 | 0.00 | 0.00 | 0.00 | 88 | 1016.3 |
| 20260506033454 | 50 | 116 | 0.0 | 0.0 | 0.00 | 0.00 | 0.00 | 88 | 1016.2 |
| 20260506033055 | 50 | 113 | 0.0 | 0.0 | 0.00 | 0.00 | 0.00 | 89 | 1016.1 |
| 20260506033004 | 50 | 113 | 0.0 | 0.0 | 0.00 | 0.00 | 0.00 | 89 | 1016.2 |
| 20260506032456 | 50 | 132 | 0.0 | 0.0 | 0.00 | 0.00 | 0.00 | 89 | 1016.3 |
| 20260506031956 | 50 | 199 | 0.0 | 1.0 | 0.00 | 0.00 | 0.00 | 88 | 1016.3 |
| 20260506031555 | 50 | 149 | 0.0 | 1.0 | 0.00 | 0.00 | 0.00 | 88 | 1016.1 |
| 20260506031504 | 50 | 148 | 0.0 | 1.0 | 0.00 | 0.00 | 0.00 | 88 | 1016.3 |
| 20260506030955 | 50 | 276 | 0.0 | 2.0 | 0.00 | 0.00 | 0.00 | 88 | 1016.3 |
| 20260506030455 | 50 | 256 | 0.0 | 2.0 | 0.00 | 0.00 | 0.00 | 88 | 1016.2 |
| 20260506030057 | 50 | 194 | 0.0 | 2.0 | 0.00 | 0.00 | 0.00 | 87 | 1016.1 |
| 20260506030004 | 50 | 200 | 1.0 | 2.0 | 0.00 | 0.00 | 0.00 | 87 | 1016.2 |
| 20260506025455 | 51 | 194 | 0.0 | 2.0 | 0.00 | 0.00 | 0.00 | 87 | 1016.2 |
| 20260506024955 | 51 | 221 | 0.0 | 1.0 | 0.00 | 0.00 | 0.00 | 88 | 1016.1 |
| 20260506024606 | 51 | 221 | 0.0 | 1.0 | 0.00 | 0.00 | 0.00 | 88 | 1016.2 |
| 20260506024505 | 51 | 234 | 0.0 | 1.0 | 0.00 | 0.00 | 0.00 | 88 | 1016.2 |
| 20260506023955 | 51 | 81 | 0.0 | 1.0 | 0.00 | 0.00 | 0.00 | 88 | 1016.2 |
| 20260506023455 | 51 | 214 | 0.0 | 2.0 | 0.00 | 0.00 | 0.00 | 87 | 1016.2 |
| 20260506023109 | 51 | 152 | 0.0 | 2.0 | 0.00 | 0.00 | 0.00 | 87 | 1016.2 |
| 20260506023015 | 51 | 136 | 0.0 | 0.0 | 0.00 | 0.00 | 0.00 | 87 | 1016.3 |
| 20260506022455 | 51 | 198 | 0.0 | 2.0 | 0.00 | 0.00 | 0.00 | 87 | 1016.3 |
| 20260506021956 | 51 | 156 | 1.0 | 2.0 | 0.00 | 0.00 | 0.00 | 86 | 1016.4 |
| 20260506021555 | 52 | 159 | 0.0 | 2.0 | 0.00 | 0.00 | 0.00 | 86 | 1016.2 |
| 20260506021506 | 52 | 142 | 1.0 | 2.0 | 0.00 | 0.00 | 0.00 | 87 | 1016.3 |
| 20260506020955 | 52 | 154 | 0.0 | 0.0 | 0.00 | 0.00 | 0.00 | 86 | 1016.3 |
| 20260506020455 | 52 | 150 | 0.0 | 2.0 | 0.00 | 0.00 | 0.00 | 86 | 1016.2 |
| 20260506020057 | 52 | 150 | 0.0 | 2.0 | 0.00 | 0.00 | 0.00 | 85 | 1016.1 |
| 20260506020005 | 52 | 149 | 0.0 | 2.0 | 0.00 | 0.00 | 0.00 | 85 | 1016.3 |
| 20260506015455 | 52 | 191 | 0.0 | 1.0 | 0.00 | 0.00 | 0.00 | 85 | 1016.3 |
| 20260506014955 | 52 | 235 | 0.0 | 1.0 | 0.00 | 0.00 | 0.00 | 85 | 1016.2 |
| 20260506014555 | 52 | 243 | 0.0 | 1.0 | 0.00 | 0.00 | 0.00 | 85 | 1016.0 |
| 20260506014504 | 52 | 242 | 0.0 | 1.0 | 0.00 | 0.00 | 0.00 | 85 | 1016.2 |
| 20260506013955 | 52 | 204 | 0.0 | 1.0 | 0.00 | 0.00 | 0.00 | 84 | 1016.2 |
| 20260506013456 | 52 | 166 | 0.0 | 1.0 | 0.00 | 0.00 | 0.00 | 83 | 1016.2 |
| 20260506013103 | 53 | 143 | 0.0 | 0.0 | 0.00 | 0.00 | 0.00 | 83 | 1016.1 |
| 20260506013005 | 53 | 142 | 0.0 | 0.0 | 0.00 | 0.00 | 0.00 | 83 | 1016.2 |
| 20260506012455 | 53 | 94 | 0.0 | 0.0 | 0.00 | 0.00 | 0.00 | 83 | 1016.2 |
| 20260506011956 | 53 | 134 | 0.0 | 1.0 | 0.00 | 0.00 | 0.00 | 82 | 1016.2 |
| 20260506011604 | 54 | 148 | 0.0 | 1.0 | 0.00 | 0.00 | 0.00 | 82 | 1016.1 |
| 20260506011505 | 54 | 131 | 0.0 | 1.0 | 0.00 | 0.00 | 0.00 | 82 | 1016.2 |
| 20260506010956 | 54 | 151 | 0.0 | 2.0 | 0.00 | 0.00 | 0.00 | 81 | 1016.3 |
| 20260506010508 | 54 | 148 | 0.0 | 1.0 | 0.00 | 0.00 | 0.00 | 79 | 1016.2 |
| 20260506010056 | 55 | 159 | 0.0 | 0.0 | 0.00 | 0.00 | 0.00 | 78 | 1016.1 |
| 20260506010013 | 55 | 158 | 0.0 | 0.0 | 0.00 | 0.00 | 0.00 | 78 | 1016.1 |
| 20260506005457 | 56 | 226 | 0.0 | 1.0 | 0.00 | 0.00 | 0.00 | 78 | 1016.2 |
| 20260506004957 | 56 | 226 | 0.0 | 2.0 | 0.00 | 0.00 | 0.00 | 77 | 1016.2 |
| 20260506004559 | 57 | 203 | 0.0 | 2.0 | 0.00 | 0.00 | 0.00 | 76 | 1016.1 |
| 20260506004507 | 57 | 203 | 1.0 | 2.0 | 0.00 | 0.00 | 0.00 | 76 | 1016.1 |
| 20260506004006 | 57 | 263 | 1.0 | 4.0 | 0.00 | 0.00 | 0.00 | 77 | 1016.1 |
| 20260506003456 | 58 | 257 | 1.0 | 4.0 | 0.00 | 0.00 | 0.00 | 77 | 1016.0 |
| 20260506003056 | 58 | 255 | 1.0 | 4.0 | 0.00 | 0.00 | 0.00 | 77 | 1015.8 |
| 20260506003005 | 58 | 269 | 1.0 | 4.0 | 0.00 | 0.00 | 0.00 | 77 | 1016.0 |
| 20260506002456 | 58 | 283 | 2.0 | 4.0 | 0.00 | 0.00 | 0.00 | 77 | 1016.0 |
| 20260506001957 | 58 | 259 | 2.0 | 6.0 | 0.00 | 0.00 | 0.00 | 77 | 1016.0 |
| 20260506001558 | 57 | 286 | 1.0 | 6.0 | 0.00 | 0.00 | 0.00 | 77 | 1015.7 |
| 20260506001505 | 57 | 253 | 2.0 | 6.0 | 0.00 | 0.00 | 0.00 | 77 | 1015.8 |
| 20260506000955 | 57 | 277 | 1.0 | 4.0 | 0.00 | 0.00 | 0.00 | 75 | 1015.9 |
| 20260506000456 | 57 | 259 | 1.0 | 4.0 | 0.00 | 0.00 | 0.00 | 75 | 1015.9 |
| 20260506000011 | 57 | 229 | 1.0 | 4.0 | 0.00 | 0.00 | 0.00 | 74 | 1015.9 |
| 20260505235456 | 57 | 278 | 2.0 | 4.0 | 0.00 | 0.00 | 0.00 | 74 | 1015.9 |
| 20260505234956 | 57 | 278 | 1.0 | 4.0 | 0.00 | 0.00 | 0.00 | 73 | 1015.8 |
| 20260505234555 | 57 | 209 | 0.0 | 4.0 | 0.00 | 0.00 | 0.00 | 71 | 1015.6 |
| 20260505234507 | 57 | 239 | 0.0 | 4.0 | 0.00 | 0.00 | 0.00 | 69 | 1015.8 |
| 20260505233956 | 58 | 243 | 1.0 | 4.0 | 0.00 | 0.00 | 0.00 | 69 | 1015.6 |
| 20260505233456 | 58 | 287 | 1.0 | 5.0 | 0.00 | 0.00 | 0.00 | 70 | 1015.6 |
| 20260505233057 | 58 | 274 | 1.0 | 5.0 | 0.00 | 0.00 | 0.00 | 73 | 1015.5 |
| 20260505233007 | 58 | 294 | 2.0 | 5.0 | 0.00 | 0.00 | 0.00 | 74 | 1015.6 |
| 20260505232508 | 57 | 165 | 0.0 | 2.0 | 0.00 | 0.00 | 0.00 | 60 | 1015.6 |
| 20260505231957 | 58 | 164 | 0.0 | 2.0 | 0.00 | 0.00 | 0.00 | 59 | 1015.6 |
| 20260505231556 | 58 | 162 | 0.0 | 2.0 | 0.00 | 0.00 | 0.00 | 57 | 1015.4 |
| 20260505231506 | 58 | 162 | 0.0 | 2.0 | 0.00 | 0.00 | 0.00 | 57 | 1015.5 |
| 20260505230956 | 59 | 160 | 0.0 | 2.0 | 0.00 | 0.00 | 0.00 | 56 | 1015.5 |
| 20260505230457 | 59 | 259 | 1.0 | 2.0 | 0.00 | 0.00 | 0.00 | 55 | 1015.6 |
| 20260505230120 | 60 | 129 | 0.0 | 2.0 | 0.00 | 0.00 | 0.00 | 55 | 1015.3 |
| 20260505230017 | 60 | 184 | 1.0 | 2.0 | 0.00 | 0.00 | 0.00 | 55 | 1015.5 |
| 20260505225456 | 61 | 113 | 0.0 | 2.0 | 0.00 | 0.00 | 0.00 | 53 | 1015.5 |
| 20260505224956 | 61 | 316 | 0.0 | 2.0 | 0.00 | 0.00 | 0.00 | 50 | 1015.6 |
| 20260505224556 | 61 | 274 | 0.0 | 3.0 | 0.00 | 0.00 | 0.00 | 50 | 1015.4 |
| 20260505224505 | 61 | 274 | 1.0 | 3.0 | 0.00 | 0.00 | 0.00 | 50 | 1015.6 |
| 20260505223956 | 62 | 330 | 1.0 | 3.0 | 0.00 | 0.00 | 0.00 | 50 | 1015.6 |
| 20260505223456 | 61 | 316 | 2.0 | 3.0 | 0.00 | 0.00 | 0.00 | 50 | 1015.5 |
| 20260505223058 | 62 | 316 | 1.0 | 5.0 | 0.00 | 0.00 | 0.00 | 50 | 1015.5 |
| 20260505223006 | 62 | 331 | 1.0 | 5.0 | 0.00 | 0.00 | 0.00 | 50 | 1015.5 |
| 20260505222456 | 61 | 58 | 2.0 | 5.0 | 0.00 | 0.00 | 0.00 | 51 | 1015.5 |
| 20260505222009 | 61 | 172 | 0.0 | 0.0 | 0.00 | 0.00 | 0.00 | 53 | 1015.6 |
| 20260505221603 | 60 | 172 | 0.0 | 1.0 | 0.00 | 0.00 | 0.00 | 53 | 1015.4 |
| 20260505221506 | 60 | 172 | 0.0 | 2.0 | 0.00 | 0.00 | 0.00 | 53 | 1015.5 |
| 20260505220956 | 61 | 174 | 0.0 | 4.0 | 0.00 | 0.00 | 0.00 | 52 | 1015.5 |
| 20260505220507 | 60 | 73 | 1.0 | 4.0 | 0.00 | 0.00 | 0.00 | 53 | 1015.5 |
| 20260505220007 | 60 | 150 | 0.0 | 0.0 | 0.00 | 0.00 | 0.00 | 55 | 1015.6 |
| 20260505215456 | 60 | 160 | 0.0 | 0.0 | 0.00 | 0.00 | 0.00 | 54 | 1015.6 |
| 20260505214957 | 61 | 156 | 0.0 | 0.0 | 0.00 | 0.00 | 0.00 | 54 | 1015.6 |
| 20260505214602 | 61 | 148 | 0.0 | 1.0 | 0.00 | 0.00 | 0.00 | 53 | 1015.4 |
| 20260505214507 | 61 | 147 | 0.0 | 1.0 | 0.00 | 0.00 | 0.00 | 53 | 1015.5 |
| 20260505213958 | 62 | 153 | 0.0 | 2.0 | 0.00 | 0.00 | 0.00 | 51 | 1015.6 |
| 20260505213458 | 62 | 186 | 1.0 | 2.0 | 0.00 | 0.00 | 0.00 | 50 | 1015.5 |
| 20260505213056 | 62 | 118 | 0.0 | 3.0 | 0.00 | 0.00 | 0.00 | 50 | 1015.3 |
| 20260505213007 | 62 | 153 | 1.0 | 3.0 | 0.00 | 0.00 | 0.00 | 49 | 1015.4 |
| 20260505212509 | 63 | 146 | 1.0 | 3.0 | 0.00 | 0.00 | 0.00 | 50 | 1015.5 |
| 20260505211958 | 64 | 156 | 1.0 | 5.0 | 0.00 | 0.00 | 0.00 | 48 | 1015.4 |
| 20260505211604 | 64 | 145 | 1.0 | 5.0 | 0.00 | 0.00 | 0.00 | 46 | 1015.3 |
| 20260505211505 | 65 | 129 | 2.0 | 5.0 | 0.00 | 0.00 | 0.00 | 46 | 1015.4 |
| 20260505211008 | 64 | 86 | 2.0 | 6.0 | 0.00 | 0.00 | 0.00 | 45 | 1015.3 |
| 20260505210456 | 64 | 134 | 3.0 | 6.0 | 0.00 | 0.00 | 0.00 | 46 | 1015.3 |
| 20260505210105 | 64 | 126 | 0.0 | 4.0 | 0.00 | 0.00 | 0.00 | 47 | 1015.2 |
| 20260505210006 | 64 | 118 | 1.0 | 4.0 | 0.00 | 0.00 | 0.00 | 47 | 1015.3 |
| 20260505205458 | 64 | 138 | 0.0 | 2.0 | 0.00 | 0.00 | 0.00 | 46 | 1015.3 |
| 20260505204957 | 64 | 164 | 1.0 | 6.0 | 0.00 | 0.00 | 0.00 | 46 | 1015.3 |
| 20260505204603 | 65 | 146 | 2.0 | 6.0 | 0.00 | 0.00 | 0.00 | 45 | 1015.1 |
| 20260505204506 | 65 | 165 | 3.0 | 6.0 | 0.00 | 0.00 | 0.00 | 45 | 1015.3 |
| 20260505203957 | 64 | 128 | 2.0 | 5.0 | 0.00 | 0.00 | 0.00 | 45 | 1015.3 |
| 20260505203457 | 64 | 127 | 2.0 | 5.0 | 0.00 | 0.00 | 0.00 | 46 | 1015.3 |
| 20260505203107 | 64 | 116 | 2.0 | 5.0 | 0.00 | 0.00 | 0.00 | 45 | 1015.1 |
| 20260505203017 | 64 | 150 | 3.0 | 5.0 | 0.00 | 0.00 | 0.00 | 46 | 1015.3 |
| 20260505202457 | 65 | 127 | 1.0 | 6.0 | 0.00 | 0.00 | 0.00 | 46 | 1015.3 |
| 20260505201958 | 65 | 131 | 3.0 | 7.0 | 0.00 | 0.00 | 0.00 | 45 | 1015.2 |
| 20260505201557 | 65 | 133 | 3.0 | 7.0 | 0.00 | 0.00 | 0.00 | 45 | 1015.0 |
| 20260505201507 | 65 | 165 | 5.0 | 7.0 | 0.00 | 0.00 | 0.00 | 45 | 1015.1 |
| 20260505201008 | 65 | 145 | 3.0 | 8.0 | 0.00 | 0.00 | 0.00 | 45 | 1015.1 |
| 20260505200508 | 65 | 176 | 3.0 | 9.0 | 0.00 | 0.00 | 0.00 | 45 | 1015.2 |
| 20260505200109 | 66 | 144 | 3.0 | 9.0 | 0.00 | 0.00 | 0.00 | 44 | 1014.9 |
| 20260505200007 | 66 | 104 | 4.0 | 9.0 | 0.00 | 0.00 | 0.00 | 44 | 1015.1 |
| 20260505195458 | 66 | 111 | 4.0 | 9.0 | 0.00 | 0.00 | 0.00 | 44 | 1015.1 |
| 20260505194957 | 66 | 124 | 4.0 | 9.0 | 0.00 | 0.00 | 0.00 | 45 | 1015.0 |
| 20260505194557 | 65 | 110 | 4.0 | 8.0 | 0.00 | 0.00 | 0.00 | 45 | 1014.9 |
| 20260505194507 | 65 | 148 | 4.0 | 8.0 | 0.00 | 0.00 | 0.00 | 45 | 1015.0 |
| 20260505193957 | 65 | 139 | 2.0 | 9.0 | 0.00 | 0.00 | 0.00 | 46 | 1015.0 |
| 20260505193457 | 65 | 97 | 4.0 | 9.0 | 0.00 | 0.00 | 0.00 | 46 | 1014.9 |
| 20260505193104 | 65 | 79 | 1.0 | 8.0 | 0.00 | 0.00 | 0.00 | 46 | 1014.9 |
| 20260505193009 | 65 | 153 | 2.0 | 8.0 | 0.00 | 0.00 | 0.00 | 46 | 1015.0 |
| 20260505192457 | 65 | 192 | 3.0 | 8.0 | 0.00 | 0.00 | 0.00 | 46 | 1015.0 |
| 20260505191957 | 65 | 160 | 4.0 | 6.0 | 0.00 | 0.00 | 0.00 | 46 | 1014.9 |
| 20260505191608 | 65 | 129 | 2.0 | 6.0 | 0.00 | 0.00 | 0.00 | 47 | 1014.8 |
| 20260505191507 | 65 | 150 | 2.0 | 6.0 | 0.00 | 0.00 | 0.00 | 47 | 1014.9 |
| 20260505190957 | 65 | 131 | 3.0 | 7.0 | 0.00 | 0.00 | 0.00 | 47 | 1014.9 |
| 20260505190457 | 65 | 120 | 4.0 | 7.0 | 0.00 | 0.00 | 0.00 | 47 | 1014.9 |
| 20260505190057 | 65 | 179 | 1.0 | 7.0 | 0.00 | 0.00 | 0.00 | 47 | 1014.7 |
| 20260505190007 | 65 | 149 | 2.0 | 8.0 | 0.00 | 0.00 | 0.00 | 47 | 1014.8 |
| 20260505185457 | 65 | 106 | 2.0 | 9.0 | 0.00 | 0.00 | 0.00 | 47 | 1014.7 |
| 20260505184957 | 64 | 125 | 1.0 | 3.0 | 0.00 | 0.00 | 0.00 | 49 | 1014.7 |
| 20260505184559 | 64 | 117 | 1.0 | 3.0 | 0.00 | 0.00 | 0.00 | 52 | 1014.5 |
| 20260505184506 | 63 | 144 | 1.0 | 3.0 | 0.00 | 0.00 | 0.00 | 52 | 1014.7 |
| 20260505183957 | 63 | 108 | 1.0 | 3.0 | 0.00 | 0.00 | 0.00 | 55 | 1014.7 |
| 20260505183457 | 63 | 44 | 0.0 | 2.0 | 0.00 | 0.00 | 0.00 | 56 | 1014.6 |
| 20260505183057 | 62 | 222 | 0.0 | 1.0 | 0.00 | 0.00 | 0.00 | 55 | 1014.5 |
| 20260505183008 | 63 | 202 | 0.0 | 1.0 | 0.00 | 0.00 | 0.00 | 56 | 1014.7 |
| 20260505182459 | 63 | 167 | 1.0 | 3.0 | 0.00 | 0.00 | 0.00 | 55 | 1014.6 |
| 20260505181959 | 63 | 257 | 1.0 | 3.0 | 0.00 | 0.00 | 0.00 | 55 | 1014.5 |
| 20260505181559 | 63 | 161 | 1.0 | 3.0 | 0.00 | 0.00 | 0.00 | 54 | 1014.3 |
| 20260505181510 | 64 | 120 | 1.0 | 3.0 | 0.00 | 0.00 | 0.00 | 53 | 1014.3 |
| 20260505180958 | 63 | 228 | 1.0 | 3.0 | 0.00 | 0.00 | 0.00 | 54 | 1014.2 |
| 20260505180458 | 64 | 163 | 1.0 | 3.0 | 0.00 | 0.00 | 0.00 | 54 | 1014.3 |
| 20260505180058 | 64 | 171 | 0.0 | 4.0 | 0.00 | 0.00 | 0.00 | 54 | 1014.2 |
| 20260505180020 | 64 | 211 | 1.0 | 4.0 | 0.00 | 0.00 | 0.00 | 54 | 1014.2 |
| 20260505175459 | 65 | 180 | 2.0 | 3.0 | 0.00 | 0.00 | 0.00 | 52 | 1014.2 |
| 20260505174959 | 65 | 224 | 1.0 | 3.0 | 0.00 | 0.00 | 0.00 | 51 | 1014.1 |
| 20260505174603 | 66 | 202 | 1.0 | 3.0 | 0.00 | 0.00 | 0.00 | 49 | 1014.1 |
| 20260505174508 | 66 | 158 | 1.0 | 3.0 | 0.00 | 0.00 | 0.00 | 48 | 1014.1 |
| 20260505173959 | 67 | 156 | 2.0 | 4.0 | 0.00 | 0.00 | 0.00 | 48 | 1014.2 |
| 20260505173459 | 68 | 150 | 1.0 | 4.0 | 0.00 | 0.00 | 0.00 | 45 | 1014.1 |
| 20260505173058 | 68 | 149 | 1.0 | 5.0 | 0.00 | 0.00 | 0.00 | 44 | 1014.1 |
| 20260505173019 | 68 | 167 | 2.0 | 6.0 | 0.00 | 0.00 | 0.00 | 46 | 1014.1 |
| 20260505172458 | 69 | 94 | 2.0 | 6.0 | 0.00 | 0.00 | 0.00 | 42 | 1014.1 |
| 20260505171958 | 69 | 67 | 1.0 | 5.0 | 0.00 | 0.00 | 0.00 | 43 | 1014.1 |
| 20260505171558 | 69 | 164 | 2.0 | 5.0 | 0.00 | 0.00 | 0.00 | 42 | 1014.0 |
| 20260505171508 | 70 | 137 | 2.0 | 5.0 | 0.00 | 0.00 | 0.00 | 43 | 1014.1 |
| 20260505170958 | 70 | 139 | 1.0 | 7.0 | 0.00 | 0.00 | 0.00 | 43 | 1014.0 |
| 20260505170458 | 70 | 119 | 2.0 | 7.0 | 0.00 | 0.00 | 0.00 | 43 | 1014.1 |
| 20260505170058 | 70 | 143 | 2.0 | 5.0 | 0.00 | 0.00 | 0.00 | 43 | 1014.0 |
| 20260505170009 | 70 | 124 | 3.0 | 5.0 | 0.00 | 0.00 | 0.00 | 44 | 1014.0 |
| 20260505165510 | 70 | 140 | 1.0 | 4.0 | 0.00 | 0.00 | 0.00 | 45 | 1014.1 |
| 20260505164958 | 71 | 82 | 2.0 | 5.0 | 0.00 | 0.00 | 0.00 | 46 | 1014.1 |
| 20260505164601 | 72 | 107 | 1.0 | 6.0 | 0.00 | 0.00 | 0.00 | 47 | 1014.0 |
| 20260505164507 | 72 | 141 | 1.0 | 6.0 | 0.00 | 0.00 | 0.00 | 46 | 1014.1 |
| 20260505163959 | 72 | 164 | 3.0 | 8.0 | 0.00 | 0.00 | 0.00 | 45 | 1014.0 |
| 20260505163459 | 72 | 137 | 4.0 | 9.0 | 0.00 | 0.00 | 0.00 | 44 | 1014.0 |
| 20260505163103 | 73 | 149 | 4.0 | 10.0 | 0.00 | 0.00 | 0.00 | 44 | 1013.8 |
| 20260505163009 | 73 | 240 | 5.0 | 10.0 | 0.00 | 0.00 | 0.00 | 44 | 1013.9 |
| 20260505162459 | 73 | 201 | 5.0 | 10.0 | 0.00 | 0.00 | 0.00 | 43 | 1014.0 |
| 20260505161959 | 74 | 200 | 4.0 | 9.0 | 0.00 | 0.00 | 0.00 | 43 | 1013.8 |
| 20260505161609 | 74 | 125 | 4.0 | 9.0 | 0.00 | 0.00 | 0.00 | 43 | 1013.7 |
| 20260505161509 | 74 | 128 | 4.0 | 9.0 | 0.00 | 0.00 | 0.00 | 43 | 1013.8 |
| 20260505161010 | 75 | 182 | 4.0 | 11.0 | 0.00 | 0.00 | 0.00 | 41 | 1013.9 |
| 20260505160459 | 75 | 165 | 4.0 | 11.0 | 0.00 | 0.00 | 0.00 | 41 | 1013.9 |
| 20260505153059 | 79 | 224 | 4.0 | 10.0 | 0.00 | 0.00 | 0.00 | 34 | 1014.1 |
| 20260505153020 | 79 | 164 | 4.0 | 10.0 | 0.00 | 0.00 | 0.00 | 34 | 1014.2 |
| 20260505152511 | 80 | 207 | 4.0 | 10.0 | 0.00 | 0.00 | 0.00 | 32 | 1014.2 |
| 20260505152000 | 81 | 207 | 3.0 | 7.0 | 0.00 | 0.00 | 0.00 | 31 | 1014.1 |
| 20260505151558 | 81 | 203 | 2.0 | 8.0 | 0.00 | 0.00 | 0.00 | 30 | 1014.1 |
| 20260505151507 | 81 | 186 | 3.0 | 8.0 | 0.00 | 0.00 | 0.00 | 29 | 1014.2 |
| 20260505150958 | 81 | 112 | 2.0 | 7.0 | 0.00 | 0.00 | 0.00 | 29 | 1014.2 |
| 20260505150458 | 81 | 276 | 3.0 | 10.0 | 0.00 | 0.00 | 0.00 | 27 | 1014.2 |
| 20260505150107 | 81 | 197 | 3.0 | 10.0 | 0.00 | 0.00 | 0.00 | 25 | 1014.1 |